Showing default

CORVUS BC2, 42846

Orbit data source: Space-Track

CORVUS BC2, 42846 is a payload satellite owned by Astro Digital (US) in SSO that was launched on Fri, 14 Jul 2017 UTC via a SOYUZ-2-1A launch vehicle from the Tyuratam Missile And Space Complex (TTMTR). Payload-class satellites include a variety of spacecraft equipped with specific instruments for various scientific and technological missions. These include communications satellites like Starlink; space stations such as the ISS; scientific satellites like the Hubble; Earth observation satellites from companies like Planet Labs, Umbra, and HawkEye 360; GPS; miniature CubeSats for education and research; and military/defense satellites.

Loading next visibility...
Identifier
42846, 2017-042X
Orbit
SSO
Country
Flag of USUS
Related business
Manufacturer
Astro Digital
Mission
Operational Commercial Imaging
Bus & Motor
CUBESAT 6U, Unknown motor
Mass
10 kg wet, 10 kg dry
Launch date (UTC)
2017-07-14 (9 years ago)
Launch vehicle
SOYUZ-2-1A
Launch site
Tyuratam Missile And Space Complex (TTMTR)
Object type
Payload
Rocket body
Debris
Shape & HBR
Box + 2 Pan, 0.2 m
Radar Cross Section
0.092 m², Small (<0.1 m²)

Expand to show TLE details & history
Last TLE update: 6 hours ago

TLE from 6 hours ago
0 CORVUS BC2
1 42846U 17042X   26133.18336502  .00002087  00000-0  14682-3 0  9992
2 42846  97.4037 295.9077 0011942 226.6476 133.3757 15.06067124481795
Epoch: 2026-05-13T04:24Z
TLE epoch observation values (Epoch: 2026-05-13T04:24:02.737Z)
Latitude
-0.00007°
Longitude
-1.05074°
Altitude
556.991 km
Speed
7.58 km/s
True Right ascension
19h 43m 37s
True Declination
0° 00' 00"
Sunlit
Object was in daylight at epoch
Visualization orbit readout
Latitude
Unknown
Longitude
Unknown
Altitude
Unknown
Speed
Unknown
Apparent Right ascension
Unknown
Apparent Declination
Unknown
Sunlit
N/A
Visualization observer readout
Local Sidereal Time
18:34:35
Azimuth
Unknown
Elevation
Unknown
Doppler factor
Unknown
Orbital elements
Apogee altitude
553.484 km
Perigee altitude
536.948 km
Semi-major axis
6,923.353 km
Eccentricity
0.00119
Inclination
97.4037°
RAAN
295.9077°
Arg. of periapsis
226.6476°
True anomaly
133.47507°
Mean anomaly
133.3757°
Eccentric anomaly
133.42539°
Mean motion
3.76763 °/min
Orbital period
95.55 mins
BSTAR
0.00014682
Loading maneuver chart data...
Computing Atmospheric mass density...
Loading historical data...
Loading historical data...
Loading historical data...
Loading historical data...
Loading historical data...
Loading historical data...
Loading historical data...

Documentation

Showing up to 5 results
|